| time (UTC) | temp C | wind direction | speed KPH | gust KPH | rain 1hr cm | rain 24hr cm | rain mn cm | humidity % | barometer mb |
| 20260505190009 | 11 | 32 | 4.8 | 11.3 | 0.18 | 1.85 | 1.85 | 99 | 986.6 |
| 20260505183009 | 11 | 32 | 4.8 | 11.3 | 0.10 | 1.75 | 1.75 | 99 | 986.6 |
| 20260505173008 | 11 | 38 | 1.6 | 9.7 | 0.23 | 1.65 | 1.65 | 98 | 986.6 |
| 20260505170011 | 11 | 29 | 4.8 | 11.3 | 0.20 | 1.55 | 1.55 | 98 | 986.7 |
| 20260505163009 | 11 | 29 | 4.8 | 14.5 | 0.13 | 1.42 | 1.42 | 98 | 987.0 |
| 20260505153014 | 11 | 37 | 3.2 | 14.5 | 0.00 | 1.30 | 1.30 | 97 | 987.0 |
| 20260505123008 | 11 | 32 | 8.0 | 11.3 | 0.00 | 1.30 | 1.30 | 95 | 987.6 |
| 20260505113008 | 11 | 40 | 8.0 | 12.9 | 0.08 | 1.30 | 1.30 | 93 | 987.9 |
| 20260505100009 | 12 | 48 | 6.4 | 14.5 | 0.03 | 1.19 | 1.19 | 94 | 987.9 |
| 20260505090009 | 12 | 38 | 4.8 | 11.3 | 0.08 | 1.17 | 1.17 | 96 | 987.9 |
| 20260505083007 | 11 | 40 | 4.8 | 20.9 | 0.05 | 1.12 | 1.12 | 96 | 987.8 |
| 20260505080008 | 11 | 37 | 9.7 | 29.0 | 0.15 | 1.09 | 1.09 | 96 | 987.4 |
| 20260505070008 | 11 | 11 | 0.0 | 0.0 | 0.46 | 0.94 | 0.94 | 96 | 987.9 |
| 20260505063007 | 11 | 298 | 0.0 | 0.0 | 0.43 | 0.74 | 0.74 | 95 | 987.4 |
| 20260505060007 | 11 | 283 | 0.0 | 0.0 | 0.33 | 0.48 | 0.48 | 94 | 987.5 |
| 20260505053011 | 11 | 281 | 0.0 | 0.0 | 0.23 | 0.30 | 0.30 | 93 | 987.1 |
| 20260505033012 | 13 | 273 | 0.0 | 0.0 | 0.00 | 0.00 | 0.00 | 77 | 986.8 |
| 20260505030011 | 14 | 272 | 0.0 | 0.0 | 0.00 | 0.00 | 0.00 | 71 | 986.6 |
| 20260505013009 | 14 | 274 | 0.0 | 0.0 | 0.00 | 0.00 | 0.00 | 75 | 987.7 |
| 20260505010009 | 14 | 273 | 0.0 | 0.0 | 0.00 | 0.00 | 0.00 | 74 | 988.2 |
| 20260505003011 | 15 | 267 | 0.0 | 0.0 | 0.00 | 0.00 | 0.00 | 72 | 988.7 |
| 20260505000012 | 14 | 265 | 0.0 | 0.0 | 0.00 | 0.00 | 0.00 | 74 | 989.1 |
| 20260504233010 | 14 | 264 | 0.0 | 0.0 | 0.00 | 0.00 | 0.00 | 73 | 989.2 |
| 20260504230012 | 15 | 259 | 0.0 | 0.0 | 0.00 | 0.00 | 0.00 | 72 | 989.6 |
| 20260504213010 | 15 | 258 | 0.0 | 0.0 | 0.00 | 0.00 | 0.00 | 68 | 990.2 |
| 20260504210009 | 16 | 266 | 0.0 | 0.0 | 0.00 | 0.00 | 0.00 | 64 | 990.5 |
| 20260504203009 | 17 | 266 | 0.0 | 0.0 | 0.00 | 0.00 | 0.00 | 60 | 990.5 |
| 20260504200010 | 17 | 274 | 0.0 | 0.0 | 0.00 | 0.00 | 0.00 | 56 | 990.4 |